Location: Москва
(55.7518°N, 37.5952°E)
Time: 05:54:56
(UTC+03:00)

ISS - Pass Details

Date: 04 February 2021
Orbit: 417 x 422 km, 51.6° (Epoch: 18 May)

Event Time Altitude Azimuth Distance (km) Brightness Sun altitude
Rises 18:20:49 0° 273° (W) 2,375 1.7 -10.1°
Reaches altitude 10° 18:23:20 10° 255° (WSW) 1,509 0.7 -10.4°
Maximum altitude 18:25:46 19° 209° (SSW) 1,090 -1.1 -10.7°
Drops below altitude 10° 18:28:12 10° 162° (SSE) 1,506 -1.0 -11.1°
Enters shadow 18:31:08 -1° 142° (SE) 2,533 -0.1 -11.5°
